Location: Eastchurch
(51.4000°N, 0.8667°E)
Time: 23:23:49
(UTC+00:00)

NOSS 3-4 (A) - Pass Details

Date: 19 January 2026
Orbit: 769 x 1442 km, 63.4° (Epoch: 10 January)

Event Time Altitude Azimuth Distance (km) Brightness Sun altitude
Rises 17:48:31 0° 230° (SW) 3,244 7.6 -12.8°
Reaches altitude 10° 17:50:50 10° 232° (SW) 2,345 6.7 -13.2°
Maximum altitude 17:56:10 75° 318° (NW) 872 3.3 -14.0°
Enters shadow 18:01:08 15° 43° (NE) 2,244 4.9 -14.7°
